| time (UTC) | temp F | wind direction | speed MPH | gust MPH | rain 1hr in | rain 24hr in | rain mn in | humidity % | barometer mb |
| 20260905190844 | 69 | 337 | 3.0 | 9.0 | 0.00 | 0.00 | 0.00 | 80 | 1015.5 |
| 20260905184844 | 69 | 301 | 3.0 | 11.0 | 0.00 | 0.00 | 0.00 | 78 | 1015.4 |
| 20260905183843 | 70 | 322 | 3.0 | 8.0 | 0.00 | 0.00 | 0.00 | 79 | 1015.4 |
| 20260905182843 | 70 | 344 | 2.0 | 8.0 | 0.00 | 0.00 | 0.00 | 77 | 1015.5 |
| 20260905181843 | 70 | 334 | 5.0 | 9.0 | 0.00 | 0.00 | 0.00 | 75 | 1015.3 |
| 20260905180843 | 71 | 334 | 8.0 | 9.0 | 0.00 | 0.00 | 0.00 | 75 | 1015.4 |
| 20260905175843 | 72 | 319 | 3.0 | 9.0 | 0.00 | 0.00 | 0.00 | 74 | 1015.5 |
| 20260905174843 | 70 | 323 | 3.0 | 8.0 | 0.00 | 0.00 | 0.00 | 76 | 1015.4 |
| 20260905173842 | 71 | 18 | 4.0 | 6.0 | 0.00 | 0.00 | 0.00 | 76 | 1015.5 |
| 20260905172842 | 70 | 84 | 1.0 | 11.0 | 0.00 | 0.00 | 0.00 | 77 | 1015.4 |
| 20260905171842 | 70 | 360 | 4.0 | 12.0 | 0.00 | 0.00 | 0.00 | 78 | 1015.4 |
| 20260905170842 | 70 | 22 | 10.0 | 12.0 | 0.00 | 0.00 | 0.00 | 76 | 1015.4 |
| 20260905165842 | 70 | 5 | 8.0 | 12.0 | 0.00 | 0.00 | 0.00 | 76 | 1015.5 |
| 20260905163841 | 69 | 34 | 1.0 | 8.0 | 0.00 | 0.00 | 0.00 | 80 | 1015.6 |
| 20260905161841 | 69 | 26 | 4.0 | 13.0 | 0.00 | 0.00 | 0.00 | 79 | 1015.7 |
| 20260905155840 | 68 | 11 | 3.0 | 11.0 | 0.00 | 0.00 | 0.00 | 79 | 1015.6 |
| 20260905154841 | 67 | 5 | 5.0 | 11.0 | 0.00 | 0.00 | 0.00 | 83 | 1015.5 |
| 20260905153840 | 68 | 360 | 9.0 | 13.0 | 0.00 | 0.00 | 0.00 | 81 | 1015.6 |
| 20260905152840 | 68 | 71 | 3.0 | 12.0 | 0.00 | 0.00 | 0.00 | 83 | 1015.5 |
| 20260905150840 | 67 | 9 | 1.0 | 12.0 | 0.00 | 0.01 | 0.00 | 85 | 1015.5 |
| 20260905145840 | 66 | 323 | 8.0 | 11.0 | 0.00 | 0.01 | 0.00 | 86 | 1015.5 |
| 20260905144839 | 65 | 292 | 10.0 | 13.0 | 0.00 | 0.01 | 0.00 | 86 | 1015.5 |
| 20260905142839 | 66 | 331 | 3.0 | 9.0 | 0.00 | 0.01 | 0.00 | 86 | 1015.5 |
| 20260905141839 | 65 | 24 | 3.0 | 10.0 | 0.00 | 0.01 | 0.00 | 87 | 1015.6 |
| 20260905140839 | 65 | 344 | 6.0 | 11.0 | 0.00 | 0.01 | 0.00 | 88 | 1015.6 |
| 20260905134838 | 65 | 328 | 8.0 | 11.0 | 0.00 | 0.01 | 0.00 | 89 | 1015.5 |
| 20260905133838 | 66 | 13 | 4.0 | 8.0 | 0.00 | 0.01 | 0.00 | 88 | 1015.6 |
| 20260905132838 | 66 | 349 | 5.0 | 8.0 | 0.00 | 0.01 | 0.00 | 90 | 1015.6 |
| 20260905130837 | 65 | 342 | 4.0 | 9.0 | 0.00 | 0.01 | 0.00 | 93 | 1015.6 |
| 20260905125837 | 64 | 5 | 4.0 | 8.0 | 0.00 | 0.01 | 0.00 | 94 | 1015.6 |
| 20260905124837 | 64 | 35 | 4.0 | 9.0 | 0.00 | 0.01 | 0.00 | 97 | 1015.7 |
| 20260905123837 | 63 | 300 | 5.0 | 7.0 | 0.00 | 0.01 | 0.00 | 99 | 1015.6 |
| 20260905122837 | 62 | 55 | 0.0 | 3.0 | 0.00 | 0.01 | 0.00 | 100 | 1015.5 |
| 20260905121837 | 61 | 55 | 0.0 | 3.0 | 0.00 | 0.01 | 0.00 | 100 | 1015.4 |
| 20260905120836 | 60 | 55 | 1.0 | 3.0 | 0.00 | 0.01 | 0.00 | 100 | 1015.3 |
| 20260905115836 | 59 | 316 | 0.0 | 1.0 | 0.00 | 0.01 | 0.00 | 100 | 1015.3 |
| 20260905114836 | 58 | 261 | 0.0 | 2.0 | 0.00 | 0.01 | 0.00 | 100 | 1015.1 |
| 20260905113836 | 57 | 261 | 0.0 | 2.0 | 0.00 | 0.01 | 0.00 | 100 | 1015.0 |
| 20260905112836 | 57 | 261 | 1.0 | 2.0 | 0.00 | 0.01 | 0.00 | 99 | 1014.9 |
| 20260905111836 | 57 | 261 | 0.0 | 2.0 | 0.00 | 0.01 | 0.00 | 100 | 1015.0 |
| 20260905110836 | 57 | 342 | 1.0 | 2.0 | 0.00 | 0.01 | 0.00 | 99 | 1014.8 |
| 20260905105835 | 56 | 342 | 0.0 | 1.0 | 0.00 | 0.01 | 0.00 | 99 | 1014.8 |
| 20260905104835 | 56 | 342 | 0.0 | 0.0 | 0.00 | 0.01 | 0.00 | 99 | 1014.5 |
| 20260905102835 | 57 | 342 | 0.0 | 1.0 | 0.00 | 0.01 | 0.00 | 98 | 1014.4 |
| 20260905101834 | 57 | 342 | 0.0 | 1.0 | 0.00 | 0.01 | 0.00 | 99 | 1014.3 |
| 20260905095834 | 57 | 342 | 0.0 | 0.0 | 0.00 | 0.01 | 0.00 | 99 | 1014.4 |
| 20260905094834 | 57 | 342 | 0.0 | 1.0 | 0.00 | 0.01 | 0.00 | 99 | 1014.5 |
| 20260905092834 | 57 | 342 | 0.0 | 1.0 | 0.00 | 0.01 | 0.00 | 98 | 1014.3 |
| 20260905091834 | 57 | 342 | 0.0 | 2.0 | 0.00 | 0.01 | 0.00 | 98 | 1014.3 |
| 20260905085833 | 58 | 321 | 2.0 | 5.0 | 0.00 | 0.01 | 0.00 | 99 | 1014.4 |
| 20260905082833 | 59 | 335 | 2.0 | 3.0 | 0.00 | 0.01 | 0.00 | 98 | 1014.7 |
| 20260905081833 | 59 | 338 | 0.0 | 3.0 | 0.00 | 0.01 | 0.00 | 98 | 1014.7 |
| 20260905080902 | 59 | 301 | 0.0 | 2.0 | 0.00 | 0.01 | 0.00 | 98 | 1014.7 |
| 20260905075902 | 59 | 272 | 1.0 | 1.0 | 0.00 | 0.01 | 0.00 | 97 | 1014.8 |
| 20260905074902 | 59 | 272 | 0.0 | 2.0 | 0.00 | 0.01 | 0.00 | 98 | 1014.9 |
| 20260905073902 | 60 | 273 | 1.0 | 2.0 | 0.00 | 0.01 | 0.00 | 98 | 1014.8 |
| 20260905072832 | 59 | 273 | 0.0 | 2.0 | 0.00 | 0.01 | 0.00 | 97 | 1014.8 |
| 20260905071902 | 60 | 273 | 0.0 | 1.0 | 0.00 | 0.01 | 0.00 | 97 | 1014.7 |
| 20260905070902 | 61 | 273 | 0.0 | 2.0 | 0.00 | 0.01 | 0.00 | 97 | 1014.8 |
| 20260905065902 | 61 | 272 | 1.0 | 2.0 | 0.00 | 0.01 | 0.00 | 97 | 1015.0 |
| 20260905064831 | 61 | 272 | 0.0 | 2.0 | 0.00 | 0.01 | 0.00 | 97 | 1015.1 |
| 20260905063831 | 62 | 288 | 0.0 | 3.0 | 0.00 | 0.01 | 0.00 | 97 | 1015.3 |
| 20260905062831 | 62 | 286 | 0.0 | 3.0 | 0.00 | 0.01 | 0.00 | 97 | 1015.3 |
| 20260905061900 | 62 | 285 | 1.0 | 3.0 | 0.00 | 0.01 | 0.00 | 97 | 1015.3 |
| 20260905055900 | 63 | 292 | 2.0 | 3.0 | 0.00 | 0.01 | 0.00 | 96 | 1015.2 |
| 20260905054900 | 63 | 299 | 1.0 | 4.0 | 0.00 | 0.01 | 0.00 | 97 | 1015.3 |
| 20260905053859 | 63 | 294 | 1.0 | 3.0 | 0.00 | 0.01 | 0.00 | 97 | 1015.3 |
| 20260905052900 | 63 | 309 | 1.0 | 4.0 | 0.00 | 0.01 | 0.00 | 98 | 1015.4 |
| 20260905051859 | 63 | 305 | 2.0 | 5.0 | 0.00 | 0.01 | 0.00 | 98 | 1015.4 |
| 20260905050859 | 62 | 346 | 1.0 | 1.0 | 0.00 | 0.01 | 0.00 | 97 | 1015.5 |
| 20260905044859 | 61 | 216 | 0.0 | 2.0 | 0.00 | 0.01 | 0.00 | 97 | 1015.7 |
| 20260905043859 | 61 | 216 | 0.0 | 3.0 | 0.00 | 0.01 | 0.00 | 97 | 1015.6 |
| 20260905042859 | 61 | 216 | 2.0 | 3.0 | 0.00 | 0.01 | 0.00 | 97 | 1015.5 |
| 20260905041858 | 61 | 231 | 0.0 | 2.0 | 0.00 | 0.01 | 0.00 | 97 | 1015.5 |
| 20260905035858 | 60 | 240 | 1.0 | 2.0 | 0.00 | 0.02 | 0.01 | 97 | 1015.5 |
| 20260905034858 | 60 | 315 | 0.0 | 2.0 | 0.00 | 0.02 | 0.01 | 96 | 1015.5 |
| 20260905033858 | 60 | 315 | 1.0 | 1.0 | 0.00 | 0.02 | 0.01 | 96 | 1015.5 |
| 20260905032857 | 60 | 315 | 0.0 | 2.0 | 0.00 | 0.02 | 0.01 | 95 | 1015.6 |
| 20260905031858 | 60 | 315 | 2.0 | 2.0 | 0.00 | 0.03 | 0.01 | 94 | 1015.5 |
| 20260905030857 | 61 | 302 | 0.0 | 1.0 | 0.00 | 0.03 | 0.01 | 93 | 1015.5 |
| 20260905025857 | 62 | 298 | 1.0 | 4.0 | 0.00 | 0.03 | 0.01 | 95 | 1015.5 |
| 20260905021857 | 60 | 296 | 0.0 | 0.0 | 0.00 | 0.03 | 0.01 | 94 | 1015.4 |
| 20260905020856 | 60 | 296 | 0.0 | 2.0 | 0.00 | 0.03 | 0.01 | 93 | 1015.5 |
| 20260905015856 | 60 | 296 | 2.0 | 2.0 | 0.00 | 0.03 | 0.01 | 93 | 1015.5 |
| 20260905014856 | 61 | 296 | 0.0 | 1.0 | 0.00 | 0.03 | 0.01 | 92 | 1015.6 |
| 20260905013856 | 61 | 296 | 0.0 | 2.0 | 0.00 | 0.03 | 0.01 | 92 | 1015.6 |
| 20260905012856 | 62 | 296 | 2.0 | 3.0 | 0.00 | 0.03 | 0.01 | 92 | 1015.7 |
| 20260905011856 | 62 | 300 | 2.0 | 3.0 | 0.00 | 0.03 | 0.01 | 91 | 1015.7 |
| 20260905010856 | 63 | 300 | 1.0 | 2.0 | 0.00 | 0.03 | 0.01 | 89 | 1015.5 |
| 20260905005856 | 64 | 300 | 0.0 | 2.0 | 0.00 | 0.03 | 0.01 | 87 | 1015.6 |
| 20260905003855 | 65 | 299 | 2.0 | 3.0 | 0.00 | 0.03 | 0.01 | 85 | 1015.5 |
| 20260905001855 | 65 | 307 | 2.0 | 3.0 | 0.00 | 0.03 | 0.01 | 86 | 1015.4 |
| 20260905000855 | 65 | 309 | 1.0 | 3.0 | 0.00 | 0.03 | 0.01 | 85 | 1015.3 |
| 20260904235854 | 65 | 309 | 0.0 | 2.0 | 0.00 | 0.03 | 0.01 | 84 | 1015.4 |
| 20260904233854 | 66 | 312 | 1.0 | 4.0 | 0.00 | 0.03 | 0.01 | 81 | 1015.3 |
| 20260904231854 | 67 | 317 | 2.0 | 4.0 | 0.00 | 0.03 | 0.01 | 81 | 1015.2 |
| 20260904230854 | 67 | 313 | 3.0 | 4.0 | 0.00 | 0.03 | 0.01 | 80 | 1015.2 |
| 20260904225854 | 67 | 314 | 4.0 | 5.0 | 0.00 | 0.03 | 0.01 | 80 | 1015.0 |
| 20260904224853 | 68 | 312 | 3.0 | 6.0 | 0.00 | 0.03 | 0.01 | 80 | 1015.1 |
| 20260904223853 | 69 | 340 | 2.0 | 6.0 | 0.00 | 0.03 | 0.01 | 76 | 1015.0 |
| 20260904222853 | 70 | 347 | 2.0 | 9.0 | 0.00 | 0.03 | 0.01 | 76 | 1015.1 |
| 20260904221853 | 71 | 324 | 5.0 | 10.0 | 0.00 | 0.03 | 0.01 | 74 | 1014.8 |
| 20260904220853 | 72 | 316 | 3.0 | 10.0 | 0.00 | 0.03 | 0.01 | 72 | 1015.2 |
| 20260904214852 | 72 | 337 | 5.0 | 9.0 | 0.00 | 0.03 | 0.01 | 74 | 1015.2 |
| 20260904213852 | 72 | 316 | 5.0 | 12.0 | 0.00 | 0.03 | 0.01 | 73 | 1015.3 |
| 20260904211852 | 72 | 304 | 8.0 | 14.0 | 0.00 | 0.03 | 0.01 | 73 | 1015.2 |
| 20260904210852 | 73 | 327 | 8.0 | 11.0 | 0.00 | 0.03 | 0.01 | 73 | 1015.2 |
| 20260904205852 | 73 | 344 | 4.0 | 12.0 | 0.00 | 0.03 | 0.01 | 73 | 1015.4 |
| 20260904203851 | 74 | 313 | 8.0 | 15.0 | 0.00 | 0.03 | 0.01 | 72 | 1015.4 |
| 20260904202851 | 74 | 313 | 12.0 | 14.0 | 0.00 | 0.03 | 0.01 | 71 | 1015.6 |
| 20260904201851 | 73 | 319 | 10.0 | 17.0 | 0.00 | 0.03 | 0.01 | 71 | 1015.7 |
| 20260904200851 | 73 | 310 | 8.0 | 16.0 | 0.00 | 0.03 | 0.01 | 71 | 1015.7 |
| 20260904194850 | 73 | 326 | 5.0 | 12.0 | 0.00 | 0.03 | 0.01 | 72 | 1015.8 |
| 20260904193850 | 73 | 351 | 4.0 | 14.0 | 0.00 | 0.03 | 0.01 | 73 | 1015.8 |
| 20260904192850 | 73 | 284 | 7.0 | 14.0 | 0.00 | 0.03 | 0.01 | 73 | 1015.8 |
| 20260904191850 | 73 | 322 | 6.0 | 14.0 | 0.00 | 0.03 | 0.01 | 72 | 1015.9 |